Lexington Weather

Lexington, Massachusetts, USA

44°F
5/12/2021 5:11am 
  • Lexington Conditions: Clear
  • Temperature: 44.4°F / 6.9°C 
  • Dew Point: 33.4°FIncreased 0.9°Fsince last hour.
  • Relative Humidity: 65%Increased 2.0% since last hour.
  • Wind: Wind from W W 1 mph, 10-min avg: 1 mph, gust: 3 mph
  • Barometer: 29.94 inRising 0.02  inHg/hr Rising Slowly
  • Visibility: 10 miles
  • Rain Today: 0.00 in
  •   

Regional Weather Roundup
for Boston / Norton, MA

        
000
ASUS41 KBOX 091004
RWRBOX

REGIONAL WEATHER ROUNDUP
NATIONAL WEATHER SERVICE BOSTON/NORTON MA
600 AM EDT SUN MAY 09 2021

NOTE:  "FAIR" INDICATES FEW OR NO CLOUDS BELOW 12,000 FEET WITH NO 
SIGNIFICANT WEATHER AND/OR OBSTRUCTIONS TO VISIBILITY.

MAZALL-091100-
EASTERN MASSACHUSETTS
  
CITY           SKY/WX    TMP DP  RH WIND       PRES   REMARKS
BOSTON         PTCLDY    50  39  66 W12       29.92R                  
BEVERLY        CLEAR     47  39  74 W8        29.90R                  
LAWRENCE       CLEAR     44  39  82 CALM      29.93R                  
BEDFORD        CLEAR     44  38  79 W6        29.91R                  
BLUE HILL        N/A     42  39  89 W13       29.90R                  
NORWOOD        CLEAR     40  36  86 CALM      29.93R                  
MARSHFIELD     CLEAR     46  43  87 W6        29.92R                  
PLYMOUTH       CLEAR     44  39  82 SW8       29.92R                  
TAUNTON        CLEAR     44  40  85 SW5       29.94R                  
NEW BEDFORD    CLEAR     44  41  89 W8        29.94R                  
$$

MAZALL-091100-
CAPE COD AND THE ISLANDS
  
CITY           SKY/WX    TMP DP  RH WIND       PRES   REMARKS
FALMOUTH       CLEAR     45  41  87 W8        29.93R                  
HYANNIS        CLEAR     47  42  83 W7        29.91R                  
CHATHAM        CLEAR     47  40  76 W5        29.93R                  
PROVINCETOWN   CLEAR     47  43  86 W12       29.92R                  
NANTUCKET      CLEAR     48  44  86 W15       29.94R                  
MARTHAS VNYRD  CLEAR     47  44  90 W8        29.94R                  
$$
 
MAZALL-091100-
CENTRAL AND WESTERN MASSACHUSETTS
  
CITY           SKY/WX    TMP DP  RH WIND       PRES   REMARKS
WORCESTER      CLEAR     43  38  82 W13       29.93R                  
FITCHBURG      CLEAR     44  39  82 NW3       29.93R                  
ORANGE         CLEAR     39  37  92 SE3       29.95R                  
SPRINGFIELD    CLEAR     36  36  99 CALM      29.95R                  
WESTFIELD      CLEAR     43  38  82 CALM      29.96R                  
NORTH ADAMS    CLEAR     44  37  76 W8        29.97R                  
PITTSFIELD     CLOUDY    42  37  82 W10G22    29.96R                  
$$
 
RIZALL-091100-
RHODE ISLAND
  
CITY           SKY/WX    TMP DP  RH WIND       PRES   REMARKS
PROVIDENCE     PTCLDY    45  40  82 W7        29.95R                  
NEWPORT        CLEAR     44  40  85 W5        29.95R                  
BLOCK ISLAND   CLEAR     46  42  86 W12       29.98R                  
SMITHFIELD       N/A     42  41  96 W8        29.94R                  
WESTERLY       CLEAR     41  40  96 W5        29.97R                  
$$
 
CTZALL-091100-
CONNECTICUT
  
CITY           SKY/WX    TMP DP  RH WIND       PRES   REMARKS
BRADLEY INTL   PTCLDY    44  37  76 W5        29.97R                  
HARTFORD       CLEAR     42  39  89 W3        29.98R                  
BRIDGEPORT     CLEAR     44  39  82 W6        30.00R                  
DANBURY        FOG       37  33  85 CALM      30.01R VSB 3/4          
GROTON         CLEAR     43  40  89 W5        29.97R                  
NEW HAVEN      CLEAR     45  41  86 CALM      30.00R                  
CHESTER        FAIR      41  41 100 NW6       29.98R                  
MERIDEN        CLEAR     35  34  96 CALM      30.00R                  
WILLIMANTIC    CLEAR     37  36  96 CALM      29.97R                  
OXFORD         CLEAR     40  40 100 CALM      29.99R                  
$$

MEZ002-015-021-024-NHZ003-005-008-011-012-014-VTZ005-008-091100-
NORTHERN NEW ENGLAND
  
CITY           SKY/WX    TMP DP  RH WIND       PRES   REMARKS
PORTLAND ME    PTCLDY    44  32  62 W10       29.87R                  
BANGOR ME      PTCLDY    41  33  73 NW6       29.80R                  
CONCORD NH     CLEAR     37  34  89 E5        29.91R                  
MANCHESTER NH  CLEAR     48  38  68 W5        29.90R                  
NASHUA NH      CLEAR     41  41 100 NW5       29.93R                  
PORTSMOUTH NH  PTCLDY    47  34  62 W6        29.90R                  
JAFFREY NH     CLEAR     45  38  76 W7        29.92R                  
KEENE NH       CLEAR     34  34 100 CALM      29.95S FOG              
BURLINGTON VT  PTCLDY    44  36  73 CALM      29.95R                  
MT. WASHINGTON FOG       25  25 100 NW52G60     N/A  VSB 0   WCI   4  
$$

NYZ052-076-091100-
EASTERN NEW YORK
  
CITY           SKY/WX    TMP DP  RH WIND       PRES   REMARKS
ALBANY         PTCLDY    41  38  89 W8        30.00R                  
NEW YORK CITY  PTCLDY    49  38  65 W14       30.03R                  
$$
 
ANZALL-091100-
MARINE OBSERVATIONS
  
STATION/POSITION TIME  TEMP    WIND        PRES    VSBY  WAVE
                       AIR SEA DIR/SP/G                  HT/PER
                 (UTC) (F)     (DEG/KT/KT) (MB)    (MI)  (FT/S)
BOSTON BUOY      0950   48 47  280/ 12/ 17 1012.7R         5/10
BUZZARDS BAY     0900          260/ 20/ 22 1014.7R
NANTUCKET SOUND  0950      52                N/A           2/ 3
MASS BAY-STELLWA NOT AVBL
ISLE OF SHOALS   0900   48     290/ 14/ 15 1010.7R
S OF BLOCK IS    0926      49                N/A           4/10
$$

......................KEY.........................
  SKY/WX - SKY CONDITION/PRESENT WEATHER
  TMP    - TEMPERATURE IN FAHRENHEIT
  DWPT   - DEWPOINT IN FAHRENHEIT
  RH     - RELATIVE HUMIDITY IN PERCENT
  WIND   - DIRECTION AND SPEED IN MPH
  PRES   - MEAN SEA LEVEL PRESSURE IN INCHES OF HG
  WCI    - WIND CHILL INDEX
  VSB    - VISIBILITY IN MILES
  HX     - HEAT INDEX
  TC     - TEMPERATURE IN CELSIUS
  VRB    - VARIABLE WIND DIRECTION
  N/A    - NOT AVAILABLE
  
      

Other recent Regional Weather Roundups

Wed May 12, 5:04am

Wed May 12, 4:04am

Wed May 12, 3:04am

Wed May 12, 2:04am

Wed May 12, 1:04am

Wed May 12, 12:05am

Tue May 11, 11:05pm

Tue May 11, 10:04pm

Tue May 11, 9:05pm

Tue May 11, 8:05pm

Tue May 11, 7:04pm

Tue May 11, 6:04pm

Tue May 11, 5:04pm

Tue May 11, 4:05pm

Tue May 11, 3:04pm

Tue May 11, 2:05pm

Tue May 11, 1:04pm

Tue May 11, 12:05pm

Tue May 11, 11:05am

Tue May 11, 10:04am

Tue May 11, 9:04am

Tue May 11, 8:04am

Tue May 11, 7:05am

Tue May 11, 6:04am

Tue May 11, 5:04am

Tue May 11, 4:04am

Tue May 11, 3:04am

Tue May 11, 2:04am

Tue May 11, 1:04am

Tue May 11, 12:04am

Mon May 10, 11:04pm

Mon May 10, 10:04pm

Mon May 10, 9:05pm

Mon May 10, 8:04pm

Mon May 10, 7:05pm

Mon May 10, 6:04pm

Mon May 10, 5:04pm

Mon May 10, 4:04pm

Mon May 10, 3:04pm

Mon May 10, 2:04pm

Mon May 10, 1:04pm

Mon May 10, 12:04pm

Mon May 10, 11:05am

Mon May 10, 10:04am

Mon May 10, 9:04am

Mon May 10, 8:04am

Mon May 10, 7:04am

Mon May 10, 6:04am

Mon May 10, 5:05am

Mon May 10, 4:04am

Mon May 10, 3:04am

Mon May 10, 2:04am

Mon May 10, 1:04am

Mon May 10, 12:04am

Sun May 9, 11:04pm

Sun May 9, 10:04pm

Sun May 9, 9:04pm

Sun May 9, 8:04pm

Sun May 9, 7:05pm

Sun May 9, 6:04pm

Sun May 9, 5:04pm

Sun May 9, 4:04pm

Sun May 9, 3:04pm

Sun May 9, 2:04pm

Sun May 9, 1:05pm

Sun May 9, 12:04pm

Sun May 9, 11:05am

Sun May 9, 10:04am

Sun May 9, 9:04am

Sun May 9, 8:04am

Sun May 9, 7:04am

Sun May 9, 5:04am

Sun May 9, 4:04am

Sun May 9, 3:04am

Sun May 9, 2:04am

Sun May 9, 1:05am

Sun May 9, 12:04am

Sat May 8, 11:05pm

Sat May 8, 10:04pm

Sat May 8, 9:05pm

Sat May 8, 8:04pm

Sat May 8, 7:04pm

Sat May 8, 6:04pm

Sat May 8, 5:05pm

Sat May 8, 4:04pm

Sat May 8, 3:05pm

Sat May 8, 2:05pm

Sat May 8, 1:05pm

Sat May 8, 12:04pm

Sat May 8, 11:05am

Sat May 8, 10:04am

Sat May 8, 9:04am

Sat May 8, 8:04am

Sat May 8, 7:04am

Sat May 8, 6:04am

Sat May 8, 5:04am

Sat May 8, 4:04am

Sat May 8, 3:04am

Sat May 8, 2:04am

Sat May 8, 1:05am

Sat May 8, 12:04am

Fri May 7, 11:04pm

Fri May 7, 10:05pm

Fri May 7, 9:04pm

Fri May 7, 8:04pm

Fri May 7, 7:05pm

Fri May 7, 6:04pm

Fri May 7, 5:05pm

Fri May 7, 4:04pm

Fri May 7, 3:04pm

Fri May 7, 2:05pm

Fri May 7, 1:04pm

Fri May 7, 12:04pm

Fri May 7, 11:05am

Fri May 7, 10:04am

Fri May 7, 9:04am

Fri May 7, 8:05am

Fri May 7, 7:04am

Fri May 7, 6:04am

Fri May 7, 5:04am

Fri May 7, 4:04am

Fri May 7, 3:04am

Fri May 7, 2:05am

Fri May 7, 1:04am

Fri May 7, 12:05am

Thu May 6, 11:04pm

Thu May 6, 10:04pm

Thu May 6, 9:05pm

Thu May 6, 8:04pm

Thu May 6, 7:04pm

Thu May 6, 6:04pm

Thu May 6, 5:05pm

Thu May 6, 4:04pm

Thu May 6, 3:04pm

Thu May 6, 2:05pm

Thu May 6, 1:04pm

Thu May 6, 12:04pm

Thu May 6, 11:04am

Thu May 6, 10:04am

Thu May 6, 9:04am

Thu May 6, 8:04am

Thu May 6, 7:04am

Thu May 6, 6:04am

Thu May 6, 5:04am

Thu May 6, 4:04am

Thu May 6, 3:04am

Thu May 6, 2:05am

Thu May 6, 1:04am

Thu May 6, 12:05am

Wed May 5, 11:04pm

Wed May 5, 10:04pm

Wed May 5, 9:05pm

Wed May 5, 8:04pm

Wed May 5, 7:05pm

Wed May 5, 6:04pm

Wed May 5, 5:04pm

Wed May 5, 4:04pm

Wed May 5, 3:04pm

Wed May 5, 2:05pm

Wed May 5, 1:05pm

Wed May 5, 12:04pm

Wed May 5, 11:05am

Wed May 5, 10:04am

Wed May 5, 9:04am

Wed May 5, 8:04am

Wed May 5, 7:04am

Wed May 5, 6:05am

Meta data:

ID: 3872fc82-c01a-4950-8245-db4451634485
Link: https://api.weather.gov/products/3872fc82-c01a-4950-8245-db4451634485